Showing default

COSMOS 86, 1584

Orbit data source: Space-Track

COSMOS 86, 1584 is a payload satellite owned by OKB-10 (CIS) in LEO that was launched on Sat, 18 Sep 1965 UTC via a KOSMOS 65S3 launch vehicle from the Tyuratam Missile And Space Complex (TTMTR). Payloads include a variety of satellites, spacecraft, and rockets equipped with specific instruments for various scientific and technological missions. These include communications satellites like Starlink; space stations such as the ISS; scientific satellites like the Hubble; Earth observation satellites from companies like Planet Labs, Umbra, and HawkEye 360; GPS; miniature CubeSats for education and research; and military/defense satellites.

Loading next visibility...
COSMOS 86 details
Identifier
1584, 1965-073A
Orbit
LEO
Last TLE update18 hours ago
Origin
Flag of CISOKB-10 (CIS)
ManufacturerOKB-10
MissionDefense Communications
Bus & MotorSTRELA-1 11F610, Unknown motor
Mass50 kg wet, 50 kg dry
Launch date (UTC)
1965-09-18 (59 years ago)
Launch vehicle
KOSMOS 65S3
Launch site
Tyuratam Missile And Space Complex (TTMTR)
Object type
Payload
Rocket body
Debris
Shape & HBRPoly, 0.8 m
Radar Cross Section0.731 m², Medium (>0.1 m² and < 1m²)

Expand to show TLE details & history

TLE from 18 hours ago
0 COSMOS 86
1 01584U 65073A   24355.92566056 -.00000102  00000-0 -42591-4 0  9997
2 01584  56.0563 172.5981 0211115 267.9664 260.9002 12.51905916709418
Epoch: 2024-12-20T22:12Z
Definitive object data (Epoch: 2024-12-20T22:12:57.072Z)
Latitude11.16219°
Longitude-78.21842°
Altitude1,486.386 km
Speed7.109 km/s
True Right ascension23h 00m 00s
True Declination11° 06' 11"
Sunlit
Object was in daylight at TLE epoch
Visualization TLE readout
Latitude-51.87438°
Longitude-14.04723°
Altitude1,317.16 km
Speed7.271 km/s
Apparent Right ascension03h 06m 34s
Apparent Declination-46° 18' 45"
Sunlit
Object is in daylight
Visualization observer readout
Local Sidereal Time14:56:44
Azimuth194.843° SSW
Elevation-83.357°
Doppler factor1
Orbital elements
Apogee altitude1,621.754 km
Perigee altitude1,290.958 km
Semi-major axis7,834.493 km
Eccentricity0.0211115
Inclination56.0563°
RAAN172.5981°
Arg. of periapsis267.9664°
True anomaly258.52206°
Mean anomaly260.9002°
Eccentric anomaly259.71005°
Mean motion3.12987 °/min
BSTAR-0.000042591
Orbital period115.02 mins
Loading maneuver chart data...
Loading historical data...
Loading historical data...
Loading historical data...
Loading historical data...
Loading historical data...
Loading historical data...
Loading historical data...

COSMOS 86 Visibility forecast

Observer location: undefined°, undefined

Span
Click to sort rows by Start time (UTC) header in descending order
Start Az.
Max El. time (UTC)
Max El. Az.
Max El.
End time (UTC)
End Az.
17 mins2024-12-21 16:43:22.172Z275.95° WNW2024-12-21 16:52:22.172Z346.144° N30.847°2024-12-21 17:00:22.172Z44.274° NE
15 mins2024-12-21 18:48:22.172Z315.096° NNW2024-12-21 18:55:22.172Z10.709° NNE27.513°2024-12-21 19:03:22.172Z67.905° E
17 mins2024-12-21 20:49:22.172Z319.451° NNW2024-12-21 20:57:22.172Z27.556° NE39.651°2024-12-21 21:06:22.172Z110.809° ESE
16 mins2024-12-21 22:50:22.172Z304.519° NW2024-12-21 22:58:22.172Z229.483° WSW38.107°2024-12-21 23:06:22.172Z164.135° S
7 mins2024-12-22 11:46:22.172Z130.966° SE2024-12-22 11:49:22.172Z110.204° ESE14.226°2024-12-22 11:53:22.172Z83.8° E
17 mins2024-12-22 13:40:22.172Z205.698° SW2024-12-22 13:48:22.172Z116.227° SE42.385°2024-12-22 13:57:22.172Z49.416° ENE
13 mins2024-12-22 15:41:22.172Z262.055° W2024-12-22 15:48:22.172Z322.251° NNW36.372°2024-12-22 15:54:22.172Z30.058° NE
|